#timestamp,LO_Frequency,Hit,StdDev 
1559008815.7,286046998.6,N
1559008835.6,286046998.1,N
1559008855.4,286046998.9,N
1559008875.3,286047000.3,N
1559008895.1,286047003.8,N
1559008896.0,286047003.8,N
1559008915.8,286047001.3,N
1559008935.7,286047001.9,N
1559008955.5,286047005.0,N
1559008975.3,286047007.2,N
1559008995.2,286047007.2,N
1559009015.0,286047005.5,N
1559009015.9,286047005.5,N
1559009035.8,286047003.3,N
1559009055.6,286047007.6,N
1559009075.4,286047005.5,N
1559009095.3,286047005.3,N
1559009115.1,286047004.0,N
1559009135.9,286047003.3,N
1559009155.7,286047006.0,N
1559009175.5,286047003.9,N
1559009195.4,286047004.0,N
1559009215.2,286047002.3,N
1559009235.0,286046997.4,N
1559009235.9,286046997.4,N
1559009255.8,286047000.7,N
1559009275.6,286047000.7,N
1559009295.5,286047002.0,N
1559009315.3,286047004.1,N
1559009335.1,286047003.6,N
1559009355.9,286047001.6,N
1559009375.7,286047000.0,N
1559009395.5,286046998.8,N
1559009415.4,286046996.1,N
1559009435.2,286046992.4,N
1559009455.1,286046995.1,N
1559009456.0,286046995.1,N
1559009475.8,286046996.5,N
1559009495.6,286047002.8,N
1559009515.5,286047003.0,N
1559009535.3,286047003.8,N
1559009555.1,286047006.0,N
1559009575.9,286047004.8,N
1559009595.7,286047007.2,N
1559009615.6,286047009.9,N
1559009635.4,286047010.3,N
1559009655.2,286047006.4,N
1559009675.1,286047008.5,N
1559009676.0,286047008.5,N
1559009695.8,286047007.3,N
1559009715.7,286047005.4,N
1559009735.5,286047005.0,N
1559009755.3,286047008.8,N
1559009775.2,286047010.5,N
1559009795.0,286047006.8,N
1559009795.9,286047006.8,N
1559009815.7,286047008.5,N
1559009835.6,286047009.0,N
1559009855.4,286047008.8,N
1559009875.3,286047009.0,N
1559009895.1,286047008.5,N
1559009896.0,286047008.5,N
1559009915.8,286047006.1,N
1559009935.7,286047006.6,N
1559009955.5,286047005.1,N
1559009975.3,286047004.5,N
1559009995.2,286047008.7,N
1559010015.0,286047004.7,N
1559010015.9,286047004.7,N
1559010035.8,286047006.5,Y
1559010055.6,286046998.1,P
1559010075.4,286047000.5,N
1559010095.3,286047001.5,N
1559010115.1,286047000.6,N
1559010135.9,286047003.5,N
1559010155.7,286047005.0,N
1559010175.5,286047004.6,N
1559010195.4,286047007.2,N
1559010215.2,286047010.0,Y
1559010235.1,286047005.1,P
1559010236.0,286047005.1,P
1559010255.8,286046999.7,N
1559010275.6,286046999.8,N
1559010295.5,286046999.1,N
1559010315.0,286046999.8,N
1559010315.9,286046999.8,N
1559010335.8,286047002.3,N
1559010355.6,286047001.4,N
1559010375.4,286047002.1,N
1559010395.3,286047003.3,N
1559010415.1,286047004.1,N
1559010435.8,286047002.9,N
1559010455.7,286047001.9,N
1559010475.5,286047004.7,N
1559010495.4,286047007.8,Y
1559010515.2,286047008.4,P
1559010535.0,286047006.3,N
1559010535.9,286047006.3,N
1559010555.8,286047004.6,N
1559010575.6,286047009.2,Y
1559010595.5,286047004.1,P
1559010615.3,286047007.6,P
1559010635.1,286047006.4,P
1559010655.9,286047008.0,Y
1559010675.7,286047005.9,P
1559010695.6,286047004.7,P
1559010715.4,286047006.0,P
1559010735.2,286047001.9,Y
1559010755.1,286046998.9,P
1559010756.0,286046998.9,N
1559010775.8,286047004.1,N
1559010795.6,286047002.9,N
1559010815.5,286047005.5,N
1559010835.3,286047002.2,N
1559010855.2,286046998.6,N
1559010875.0,286046998.2,N
1559010875.9,286046998.2,N
1559010895.7,286047005.7,N
1559010915.6,286047004.1,N
1559010935.4,286047000.4,N
1559010955.3,286047000.9,N
1559010975.1,286046999.3,N
1559010995.8,286047004.8,N
1559011015.7,286047002.3,N
1559011035.5,286046998.6,N
1559011055.4,286046993.5,N
1559011075.2,286046994.7,N
1559011095.0,286046991.4,N
1559011095.9,286046991.4,N
1559011115.8,286046992.5,N
1559011135.6,286046990.5,N
1559011155.4,286046993.7,N
1559011175.3,286046996.3,N
1559011195.1,286046996.3,N
1559011215.9,286046996.3,N
1559011235.7,286046995.9,N
1559011255.5,286046996.1,N
1559011275.4,286046996.5,N
1559011295.2,286046998.6,N
1559011315.0,286047000.6,N
1559011316.0,286047000.6,N
1559011335.8,286047002.7,N
1559011355.6,286047000.1,N
1559011375.5,286046998.7,N
1559011395.3,286047000.1,N
1559011415.1,286047002.9,N
1559011435.9,286047005.5,N
1559011455.7,286047005.8,N
1559011475.6,286047004.1,N
1559011495.4,286047002.0,N
1559011515.2,286046998.4,N
1559011535.1,286046996.9,N
1559011536.0,286046996.9,N
1559011555.8,286047000.1,N
1559011575.6,286047002.7,N
1559011595.5,286047001.4,N
1559011615.3,286047003.4,N
1559011635.2,286047007.9,N
1559011655.9,286047012.2,N
1559011675.7,286047012.4,N
1559011695.6,286047014.0,N
1559011715.4,286047012.9,N
1559011735.3,286047011.9,N
1559011755.1,286047015.7,N
1559011756.0,286047015.7,N
1559011775.8,286047017.5,N
1559011795.7,286047013.7,N
1559011815.5,286047014.0,N
1559011835.3,286047013.9,N
1559011855.2,286047011.0,N
1559011875.0,286047009.6,N
1559011875.9,286047009.6,N
1559011895.8,286047008.8,N
1559011915.6,286047000.9,N
1559011935.4,286046998.7,N
1559011955.3,286046996.2,N
1559011975.1,286046983.7,N
1559011995.9,286046979.8,N
1559012015.7,286046980.2,N
1559012035.5,286046973.3,N
1559012055.4,286046973.4,N
1559012075.2,286046975.8,N
1559012095.0,286046978.9,N
1559012095.9,286046978.9,N
1559012115.8,286046981.4,N
1559012135.6,286046980.0,N
1559012155.5,286046977.5,N
1559012175.3,286046983.5,N
1559012195.1,286046986.3,N
1559012215.9,286046988.4,N
1559012235.7,286046987.1,N
1559012255.5,286046990.3,N
1559012275.4,286046995.5,N
1559012295.2,286047001.3,N
1559012315.1,286047006.4,N
1559012316.0,286047006.4,N
1559012335.8,286047012.0,N
1559012355.6,286047015.6,N
1559012375.5,286047013.2,N
1559012395.3,286047020.0,N
